Regional Weather Roundup
Issued by NWS

Home | Current Version | Previous Version | Graphics & Text | Print | Product List | Glossary On
Versions: 1 2 3 4 5 6 7 8 9 10 11 12 13 14 15 16 17 18 19 20 21 22 23 24 25 26 27 28 29 30 31 32 33 34 35 36 37 38 39 40 41 42 43 44 45 46 47 48 49 50
198
ASUS45 KCYS 200710
RWRWY

WYOMING REGIONAL WEATHER ROUNDUP
NATIONAL WEATHER SERVICE CHEYENNE WY
100 AM MDT SUN AUG 20 2017

NOTE:  "FAIR" INDICATES FEW OR NO CLOUDS BELOW 12,000 FEET
WITH NO SIGNIFICANT WEATHER AND/OR OBSTRUCTIONS TO VISIBILITY.

WYZ001-200800-
YELLOWSTONE NATIONAL PARK

CITY           SKY/WX    TMP DP  RH WIND       PRES   REMARKS
LK YELLOWSTONE   N/A     42  35  76 NW3       30.24R
W YELLOWSTONE  NOT AVBL

$$
WYZ002>013-054>058-071-098>099-200800-
NORTHERN WYOMING

CITY           SKY/WX    TMP DP  RH WIND       PRES   REMARKS
JACKSON        FAIR      45  31  58 N5        30.16R
CODY           FAIR      58  35  42 VRB3      30.07R
GREYBULL       FAIR      63  35  35 SE6       29.94R
WORLAND        FAIR      64  33  31 SE6       29.97R
SHERIDAN       FAIR      53  42  66 S3        30.04R
BUFFALO        FAIR      62  34  35 NW7       30.10R
GILLETTE       FAIR      63  39  41 CALM      30.02R
HULETT         FAIR      68  39  34 E9        30.04R
NEWCASTLE      FAIR      66  32  28 W6        29.98R

$$
WYZ014>020-022>026-101>103-200800-
CENTRAL WYOMING

CITY           SKY/WX    TMP DP  RH WIND       PRES   REMARKS
BIG PINEY      FAIR      45  30  55 NE6       30.23R
PINEDALE       FAIR      43  30  61 W6        30.24S
DUBOIS         FAIR      50  23  34 W10       30.20S
LANDER           N/A    N/A N/A N/A MISG      30.09S
RIVERTON       FAIR      63  23  21 SW7       30.07S
CASPER         FAIR      54  36  50 SW5       30.08R
DOUGLAS        FAIR      67  33  28 NW5G16    30.04R

$$
WYZ021-027>030-104>119-200800-
SOUTHERN WYOMING

CITY           SKY/WX    TMP DP  RH WIND       PRES   REMARKS
EVANSTON       FAIR      62  35  36 S7        30.23S
FORT BRIDGER   FAIR      66  32  28 S10       30.25S
ROCK SPRINGS   FAIR      62  33  33 SW8       30.20S
RAWLINS        FAIR      60  25  26 CALM      30.20R
SARATOGA       FAIR      50  34  53 E10       30.23S
LARAMIE        FAIR      50  32  50 S9        30.21S
CHEYENNE       FAIR      61  29  29 SW7       30.12R
TORRINGTON     FAIR      61  42  49 NE12      29.96R
PINE BLUFFS    FAIR      52  37  58 CALM      30.05F

$$




USA.gov is the U.S. government's official web portal to all federal, state and local government web resources and services.